Location: Kajav?ndlap?lem
(16.3647°N, 80.6513°E)
Time: 08:37:54
(UTC+00:00)

Daily predictions for brighter satellites

Satellite Brightness Start Highest point End
(mag) Time Altitude Azimuth Time Altitude Azimuth Time Altitude Azimuth
GPS 2-12 Rocket1 4.5 12:20:36 10° W 12:24:39 35° SSW 12:28:43 10° SE
STARLINK-27 4.4 12:21:22 10° S 12:25:01 34° ESE 12:28:40 10° ENE
Cosmos 676 Rocket 4.0 12:21:06 10° S 12:26:14 69° ESE 12:31:22 10° NNE
STARLINK-74 4.3 12:22:58 10° S 12:26:39 35° SE 12:30:20 10° ENE
STARLINK-39 4.3 12:24:34 10° SSW 12:28:18 37° SE 12:32:01 10° NE
STARLINK 4.2 12:26:08 10° SSW 12:29:53 39° SE 12:33:39 10° NE
Cosmos 2221 Rocket 4.0 12:25:46 10° SSE 12:30:01 42° E 12:34:13 10° NNE
GPS 2-18 Rocket1 3.3 12:26:31 10° W 12:30:27 73° SSW 12:34:19 10° ESE
STARLINK-42 4.0 12:27:52 10° SSW 12:31:42 45° SE 12:35:33 10° NE
Cosmos 292 Rocket 4.2 12:28:34 10° N 12:33:05 39° ENE 12:37:35 10° SE
IUS-18 SRM-1 2.4 12:28:17 10° WNW 12:33:14 60° SSW 12:35:27 10° SE
STARLINK-21 4.0 12:29:26 10° SSW 12:33:15 44° SE 12:37:05 10° NE
Cosmos 1954 Rocket 3.9 12:28:48 10° S 12:33:57 79° ESE 12:39:06 10° NNE
STARLINK-45 3.7 12:31:05 10° SSW 12:35:00 56° SE 12:38:56 10° NE
SL-8 R/B 4.4 12:31:34 10° NW 12:36:18 59° SW 12:41:02 10° SSE
Cosmos 1782 Rocket 4.1 12:32:33 10° NNE 12:36:32 36° E 12:40:30 10° SSE
SKYMED 2 3.7 12:32:16 10° N 12:36:35 79° WNW 12:40:55 10° SSW
STARLINK-75 3.6 12:32:53 10° SSW 12:36:52 64° SE 12:40:49 10° NE
Lacrosse 5 2.2 12:31:52 10° SW 12:36:56 70° WNW 12:42:00 10° NNE
ADEOS Rocket 4.5 12:34:59 10° ENE 12:37:31 13° E 12:40:05 10° SE
STARLINK-76 3.8 12:34:13 10° SSW 12:38:07 52° SE 12:42:01 10° NE
STARLINK 3.7 12:35:56 10° SSW 12:39:51 55° SE 12:43:44 10° NE
STARLINK-32 3.7 12:37:34 10° SSW 12:41:30 58° SE 12:45:20 11° NE
STARLINK-40 3.6 12:39:12 10° SSW 12:43:10 62° SE 12:46:56 11° NE
STARLINK-44 3.6 12:40:51 10° SSW 12:44:48 65° SE 12:48:31 12° NE
Ariane H10-3 4.2 12:43:17 10° SW 12:45:23 20° SSE 12:49:35 10° ESE
Sich 1 Rocket 4.2 12:42:22 10° NNE 12:46:21 34° E 12:50:20 10° SSE
STARLINK-37 3.5 12:42:32 10° SSW 12:46:32 74° SE 12:50:15 12° NE
Atlas Centaur 2 3.0 12:39:12 10° WNW 12:46:49 84° NNE 12:55:23 10° ESE
STARLINK-36 3.5 12:44:06 10° SSW 12:48:06 72° SE 12:51:42 12° NE
USA 267 4.2 12:43:17 10° E 12:48:17 24° NE 12:53:16 10° N
STARLINK-41 3.5 12:45:39 10° SSW 12:49:38 74° SE 12:53:09 13° NE
Meteor 2-13 Rocket 4.5 12:43:52 10° S 12:49:46 59° E 12:55:42 10° NNE
H-2A R/B 4.5 12:47:15 10° SSW 12:50:41 36° W 12:54:06 10° NNW
STARLINK-64 3.5 12:47:24 10° SSW 12:51:23 79° SE 12:54:51 14° NE
Cosmos 1461 3.2 12:48:06 10° S 12:51:52 42° ESE 12:54:51 15° NE
Cosmos 2297 4.4 12:47:01 10° N 12:51:58 30° ENE 12:56:50 10° SE
STARLINK-35 3.5 12:49:03 10° SW 12:53:03 85° SE 12:56:29 14° NE
SWIFT 2.8 12:50:25 10° WNW 12:54:31 46° N 12:57:20 18° ENE
STARLINK-51 3.5 12:50:42 10° SW 12:54:43 89° SE 12:58:05 14° NE
STARLINK-30 3.5 12:52:14 10° SW 12:56:14 87° NW 12:59:32 15° NE
ISS -2.9 12:53:23 10° NNW 12:56:21 29° NE 12:58:20 17° ESE
Cosmos 1975 3.7 12:52:56 10° NNE 12:56:22 27° E 12:59:48 10° SE
Cosmos 1741 Rocket 4.4 12:51:58 10° S 12:56:56 42° E 13:01:31 12° NNE
FUSE 4.0 12:52:16 10° WNW 12:57:36 63° NNE 13:01:55 15° E
STARLINK-33 3.5 12:54:00 10° SW 12:58:00 82° NW 13:01:16 15° NNE
NOAA 12 4.4 12:54:02 10° S 12:59:20 74° WSW 13:04:37 10° NNW
STARLINK-50 3.6 12:55:40 10° SW 12:59:41 78° NW 13:02:52 16° NNE
Envisat 3.0 12:54:49 10° S 12:59:53 85° WSW 13:04:58 10° NNW
STARLINK 3.5 12:57:05 10° SW 13:01:06 88° NW 13:04:03 18° NE
Okean-O 3.1 12:58:06 10° S 13:02:30 66° W 13:06:53 10° NNW
STARLINK-56 3.7 12:58:58 10° SW 13:02:57 71° NW 13:06:01 16° NNE
GPS 2-14 Rocket1 2.9 12:59:32 10° WSW 13:03:26 60° SSE 13:05:41 23° E
Starlink (trailer) 3.8 13:00:38 10° SW 13:04:37 67° NW 13:07:36 17° NNE
STARLINK-38 3.9 13:02:18 10° SW 13:06:16 63° NW 13:09:13 17° NNE
Cosmos 1674 Rocket 4.0 13:02:13 10° SSE 13:06:21 39° E 13:09:19 17° NNE
CZ-4C R/B 2.3 13:02:32 10° SW 13:07:03 58° WNW 13:11:58 10° NNE
Cosmos 1441 Rocket 3.6 13:03:36 10° NNW 13:07:17 62° W 13:10:57 10° S
STARLINK-65 3.9 13:03:54 10° SW 13:07:51 60° NW 13:10:45 17° NNE
ATLAS 3B CENTAUR R/B 3.5 13:02:49 10° SW 13:08:31 53° SE 13:17:17 20° ENE
SEDSat Delta rocket 4.0 13:01:59 10° WSW 13:08:41 87° NNW 13:13:17 22° ENE
Cosmos 1939 Rocket 4.1 13:07:00 10° SE 13:09:23 22° E 13:09:23 22° E
Cosmos 2266 Rocket 4.1 13:04:39 10° S 13:10:55 59° E 13:17:11 10° NNE
Cosmos 405 3.6 13:08:15 10° SSE 13:11:28 34° E 13:11:58 32° ENE
CZ-4 R/B 4.3 13:07:32 10° SSE 13:11:40 75° ENE 13:15:49 10° N
IRIDIUM 106 4.3 13:07:22 10° SSE 13:12:28 59° E 13:17:34 10° N
NOSS 2-1 (C) 3.7 13:08:36 10° S 13:12:36 41° ESE 13:13:41 32° ENE
Cosmos 1943 3.2 13:07:13 10° SSW 13:12:53 90° ESE 13:18:33 10° NNE
STARLINK-69 4.3 13:09:03 10° SW 13:12:56 49° NW 13:15:39 18° NNE
STARLINK-66 4.3 13:10:31 10° SW 13:14:23 49° NW 13:17:02 19° NNE
YAOGAN 1 2.7 13:10:15 10° SSE 13:14:25 50° ENE 13:18:36 10° N
Cosmos 2084 Rocket 3.4 13:10:32 10° SSW 13:14:52 83° ESE 13:17:33 23° NNE
Cosmos 1850 Rocket 3.9 13:10:15 10° S 13:15:26 74° ESE 13:20:00 14° NNE
NOSS 2-1 (D) 3.5 13:12:10 10° S 13:16:14 47° ESE 13:17:14 36° ENE
Cosmos 1515 4.5 13:13:49 10° SSW 13:17:28 51° W 13:21:09 10° N
S3M 4.1 13:14:23 10° N 13:20:17 49° E 13:26:09 10° SSE
Meteor 2-9 Rocket 4.4 13:14:53 10° N 13:20:27 48° E 13:25:52 10° SSE
Genesis I 4.1 13:18:16 10° N 13:20:33 28° NNE 13:20:33 28° NNE
Cosmos 1378 Rocket 3.7 13:20:19 10° SSE 13:24:24 44° E 13:25:09 40° ENE
FengYun 1-2 T 4.4 13:19:02 10° S 13:24:29 73° WSW 13:29:57 10° NNW
CZ-3B R/B 2.4 13:24:56 10° W 13:29:38 49° N 13:32:56 30° NE
ASC 2 Rocket 4.4 13:24:42 10° WNW 13:31:03 79° NNE 13:36:57 25° ESE
Geosat 3.9 13:28:06 25° NNE 13:31:07 84° ESE 13:36:08 10° SSW
Cosmos 1300 Rocket 3.8 13:31:48 44° ESE 13:31:48 44° ESE 13:35:27 10° SSE
Cosmos 1553 Rocket 4.0 13:25:55 10° N 13:32:20 88° W 13:38:44 10° S
CZ-2D R/B 3.6 13:28:39 10° SSE 13:31:37 44° ESE 13:31:37 44° ESE
GEOS 3 Rocket 4.1 13:36:42 40° E 13:37:27 42° ESE 13:42:26 10° S
Cosmos 489 Rocket 4.4 13:38:26 10° N 13:44:43 63° ENE 13:50:58 10° SSE
OAO 1 Rocket 4.5 13:43:23 10° WNW 13:48:40 75° SW 13:50:25 43° SE
CZ-4 R/B 3.3 13:47:55 10° SSW 13:51:24 29° W 13:54:49 10° NW
Cosmos 2151 Rocket 4.1 13:56:47 49° S 13:56:47 49° S 14:00:01 10° S
H-2A R/B 4.0 13:10:20 10° WNW 13:55:59 78° SW 14:00:33 26° SE
Ariane H10+ 3.6 13:54:55 10° SW 13:58:04 28° SSE 13:59:05 26° SE
NOSS 2-1 (E) 4.4 13:57:51 10° SW 14:01:06 39° W 14:01:06 39° W
Cosmos 1066 Rocket 4.2 13:56:47 10° S 14:02:16 69° ESE 14:02:16 69° ESE
Cosmos 883 Rocket 4.3 14:10:41 82° E 14:10:41 82° E 14:16:54 10° S
Nadezhda 2 Rocket 4.5 14:09:27 10° S 14:15:51 83° W 14:16:37 70° NNW
ADEOS Rocket 3.7 14:21:07 33° NNW 14:22:55 44° WNW 14:28:23 10° SW
Delta 2 Rocket 4.4 14:21:15 10° WSW 14:30:10 84° SSE 14:30:10 84° SSE
USA 267 3.6 14:27:04 26° SSE 14:30:52 61° SW 14:37:19 10° NW
Atlas Centaur 2 4.3 14:29:19 10° W 14:36:39 36° SSW 14:41:32 20° SSE
CZ-3B R/B 4.4 15:19:33 10° WNW 15:20:56 17° WNW 15:20:56 17° WNW
ATLAS 3B CENTAUR R/B 4.4 15:26:43 10° W 15:34:27 60° NW 15:34:27 60° NW
CZ-3B R/B 4.4 21:23:43 38° S 21:23:43 38° S 21:30:57 10° SE
SL-16 R/B 2.7 22:37:47 53° ENE 22:37:49 53° ENE 22:43:19 10° SSE
Aureole 1 Rocket 4.3 22:41:57 63° N 22:43:18 84° ENE 22:51:33 10° SSE
Cosmos 2237 Rocket 4.3 22:50:41 14° SSW 22:50:41 14° SSW 22:51:30 10° SSW
Meteosat 1 Rocket2 4.4 22:48:21 37° SSE 22:48:21 37° SSE 22:52:10 10° SE
Cosmos 1862 Rocket 4.4 22:50:46 49° ESE 22:50:46 49° ESE 22:54:44 10° SSE
GPS 2-15 Rocket1 3.8 22:59:20 49° NE 22:59:20 49° NE 23:03:18 10° ENE
Hubble Space Telescope 1.6 23:01:22 48° E 23:01:22 48° E 23:04:31 10° ENE
STARLINK-51 4.4 23:03:32 46° SE 23:03:32 46° SE 23:06:25 10° SE
STARLINK-30 4.4 23:04:46 47° SE 23:04:46 47° SE 23:07:40 10° SE
STARLINK-33 4.2 23:06:42 49° SSE 23:06:42 49° SSE 23:09:42 10° SE
STARLINK-50 4.2 23:08:19 50° SSE 23:08:19 50° SSE 23:11:22 10° SSE
STARLINK 3.9 23:09:26 60° SE 23:09:26 60° SE 23:12:45 10° SE
Meteor 1-20 Rocket 4.3 23:03:32 10° S 23:09:20 83° E 23:15:11 10° N
STARLINK-56 4.0 23:11:28 53° SSE 23:11:28 53° SSE 23:14:37 10° SSE
Lacrosse 5 2.1 23:11:18 52° SW 23:11:18 52° SW 23:15:50 10° SSE
Starlink (trailer) 4.0 23:13:04 53° S 23:13:04 53° S 23:16:17 10° SSE
Cosmos 2242 Rocket 4.2 23:11:10 25° NNE 23:13:37 56° E 23:17:58 10° SSE
STARLINK-38 4.0 23:14:41 52° S 23:14:41 52° S 23:17:56 10° SSE
STARLINK-65 3.9 23:16:04 52° S 23:16:04 52° S 23:19:21 10° SSE
Cosmos 614 Rocket 3.8 23:17:53 41° NNW 23:19:42 86° WSW 23:24:50 10° S
STARLINK-69 4.0 23:21:08 47° SSW 23:21:08 47° SSW 23:24:30 10° SSE
STARLINK-66 4.0 23:22:14 47° SSW 23:22:14 47° SSW 23:25:39 10° SSE
FALCON 9 R/B 4.4 23:20:34 19° NNW 23:24:49 27° NNE 23:41:50 10° ENE
STARLINK-70 4.1 23:27:25 42° SW 23:27:25 42° SW 23:30:57 10° SSE
STARLINK-68 4.3 23:29:12 36° SW 23:29:12 36° SW 23:32:38 10° SSE
Meteor 1-27 Rocket 3.9 23:27:21 31° NNW 23:29:57 53° W 23:35:33 10° S
Cosmos 1602 3.6 23:26:31 10° S 23:30:19 82° E 23:34:08 10° N
PSLV R/B 4.2 23:26:21 10° S 23:30:23 47° W 23:30:25 47° W
STARLINK-58 4.2 23:30:38 37° SW 23:30:38 37° SW 23:34:11 10° SSE
Okean 1-7 4.5 23:27:24 10° NNE 23:31:29 38° E 23:35:30 10° SSE
Cosmos 1241 Rocket 4.4 23:28:39 32° NW 23:31:33 62° WSW 23:37:42 10° S
Cosmos 1844 Rocket 3.6 23:26:39 10° S 23:32:03 50° ESE 23:37:25 10° NNE
STARLINK-62 4.4 23:32:21 34° SW 23:32:21 34° SW 23:35:50 10° S
STARLINK-63 4.3 23:33:48 34° SW 23:33:48 34° SW 23:37:24 10° S
FENGYUN 3A 4.2 23:31:08 10° NNE 23:36:25 60° ESE 23:41:41 10° S
STARLINK-72 4.3 23:36:50 33° WSW 23:36:57 33° WSW 23:40:35 10° S
Cosmos 1092 Rocket 4.1 23:33:55 10° N 23:40:02 76° E 23:46:09 10° S
Cosmos 1140 Rocket 3.4 23:37:49 15° NNW 23:42:11 82° WSW 23:47:24 10° S
OAO 1 4.5 23:41:16 30° WNW 23:44:03 76° SW 23:49:33 10° SE
NOSS 3-2 (A) 3.2 23:39:30 10° SSW 23:44:57 86° ESE 23:50:43 10° NNE
Delta 202 3.5 23:41:58 25° W 23:45:06 88° NNW 23:50:39 10° E
METEOR-M 4.2 23:41:52 10° NNE 23:47:13 83° ESE 23:52:33 10° S
Cosmos 371 Rocket 3.2 23:46:08 10° SSW 23:50:55 72° WNW 23:55:45 10° N
Cosmos 407 Rocket 4.0 23:48:53 22° NW 23:51:42 39° W 23:56:36 10° SSW
